Location: Mohawk View
(42.7837°N, 73.7885°W)
Time: 13:33:33
(UTC+00:00)

Cosmos 1461 - Pass Details

Date: 17 June 2021
Orbit: 513 x 649 km, 65.0° (Epoch: 31 July)

Event Time Altitude Azimuth Distance (km) Brightness Sun altitude
Rises 02:11:13 0° 331° (NNW) 2,816 8.3 -13.7°
Reaches altitude 10° 02:13:35 10° 337° (NNW) 1,888 6.8 -14.0°
Maximum altitude 02:17:40 46° 52° (NE) 751 3.5 -14.4°
Enters shadow 02:19:54 23° 115° (ESE) 1,198 4.0 -14.7°
